RH
28 28 28 28 27 27 26 26 27 26 25 26 26 25 25 26 28 31 31 32 32 32 32 31 32 31 32 31 28 25 22 17 9 10 23 26 18 14 16 19 20 20 20 21 21 21 20 17 13 12 18 20 19 19 20 14 6 7 7 8 8 9 10 9 10 10 12 11 14 17 20 21 27 44 39 28 33 42 46 32 27 32 32 38 41 36 27 21 22 27 33 37 36 27 18 16 16
31 30 29 29 28 29 28 27 28 27 26 25 26 25 24 25 26 29 30 30 30 29 29 28 28 29 31 29 26 24 19 13 5 4 7 7 7 9 11 16 20 20 20 20 21 21 20 17 12 14 20 20 19 19 16 8 5 7 7 8 8 9 9 9 10 10 12 11 13 16 21 25 26 44 46 32 32 40 49 38 29 35 34 36 41 42 33 23 21 26 33 37 40 33 21 15 16
33 33 32 32 31 30 30 28 28 28 27 25 26 26 24 25 25 27 28 29 29 28 27 26 27 29 30 28 24 22 16 8 4 3 4 4 7 9 10 15 19 20 20 19 21 21 21 16 11 16 21 19 18 18 12 5 6 7 7 8 8 9 9 9 10 10 12 12 13 16 21 27 28 45 52 37 32 38 49 44 33 37 38 36 39 43 41 29 21 24 30 37 44 41 28 17 15
34 34 33 33 32 31 31 29 28 29 28 26 26 25 24 24 23 24 26 27 28 27 27 26 27 29 29 26 23 19 12 5 3 4 4 5 6 8 10 14 17 19 19 20 21 20 20 14 11 19 20 18 19 18 9 5 7 8 8 8 9 9 9 9 10 11 11 12 13 17 22 28 32 50 58 43 35 36 47 48 38 39 41 40 38 41 46 39 26 21 26 33 45 50 40 24 15
33 33 32 32 32 30 29 29 28 28 28 27 26 25 23 22 22 22 23 23 25 26 26 26 27 27 27 24 22 17 9 4 3 3 4 5 6 8 10 13 16 19 20 21 21 20 18 11 13 21 19 19 21 16 8 6 8 8 9 8 9 9 9 10 10 11 11 13 13 17 23 30 37 55 64 50 40 36 45 52 43 42 44 45 42 39 44 47 37 24 23 30 41 51 50 37 22
32 32 31 31 30 28 28 28 26 27 27 27 26 26 23 22 21 20 21 21 21 22 23 24 25 26 25 24 21 15 6 4 4 3 4 4 6 8 10 13 16 19 21 21 21 20 16 9 16 22 19 21 20 13 7 7 9 9 9 8 9 9 10 10 10 10 11 13 13 17 22 33 45 60 68 56 47 38 43 53 48 47 48 49 48 44 42 46 47 35 24 26 36 45 50 49 36
31 31 30 30 30 28 28 27 26 26 25 24 25 25 23 22 21 20 20 20 20 21 22 23 24 25 24 23 19 12 5 3 4 4 4 4 6 8 11 14 16 20 21 21 20 18 13 10 17 19 18 22 17 10 8 9 9 9 9 9 9 9 10 9 10 10 11 12 13 17 23 41 54 65 71 62 54 41 42 54 52 53 56 54 54 52 46 44 49 47 35 26 31 40 46 50 48
25 25 24 25 25 23 25 25 25 26 24 22 24 24 21 21 21 20 20 20 20 20 22 23 24 24 23 21 17 9 4 4 4 4 4 5 6 9 12 15 18 20 21 21 19 17 11 11 17 16 19 22 14 9 8 10 10 9 9 9 9 9 9 10 10 10 11 12 13 18 31 52 63 69 73 65 59 44 40 53 56 59 64 64 63 61 57 48 46 50 48 36 30 36 43 47 51
15 16 14 16 16 14 16 18 19 20 21 21 22 22 20 20 20 20 20 20 20 20 22 23 24 23 21 19 13 7 4 4 4 4 4 6 8 11 14 16 19 20 20 20 18 16 11 14 19 17 21 20 11 8 9 10 10 9 9 9 9 9 10 10 10 11 11 11 16 27 45 63 67 70 73 68 61 46 39 51 57 61 66 70 71 69 67 61 51 47 51 49 39 34 40 45 49
9 9 9 9 9 8 9 10 11 12 13 15 17 18 19 20 20 20 20 20 20 21 21 22 22 21 19 15 8 4 4 4 4 4 5 7 10 12 15 17 19 19 18 16 16 14 10 16 22 19 21 15 8 9 9 9 10 9 9 9 9 9 10 9 10 11 10 17 29 43 58 68 68 69 72 71 64 47 37 46 56 61 65 68 72 72 72 71 63 52 48 52 51 43 39 42 47
8 8 8 7 7 7 7 7 7 7 7 8 9 11 14 17 18 19 19 20 20 20 20 20 19 18 14 8 5 4 4 4 4 5 6 8 10 12 15 17 18 16 14 13 13 10 11 20 23 21 18 11 8 8 9 10 9 9 9 9 9 10 10 10 11 10 19 38 51 58 66 69 68 68 71 72 67 52 37 40 51 59 64 66 69 70 72 74 72 66 55 49 53 54 47 42 45
11 10 10 9 8 8 7 7 7 6 6 6 5 5 7 9 12 15 17 18 19 19 19 18 15 12 8 5 5 5 5 4 4 5 6 8 9 11 13 14 14 11 10 9 8 10 18 25 23 21 16 9 8 8 9 9 9 10 9 10 13 15 14 12 11 18 40 60 64 65 69 68 67 67 69 71 70 60 42 37 45 55 63 66 69 68 69 72 73 73 69 58 51 54 56 50 44
14 13 13 12 10 10 9 8 8 7 6 5 5 4 4 5 6 8 10 13 14 14 13 12 9 7 5 5 6 5 5 5 5 5 6 7 8 10 11 11 10 8 7 5 9 19 26 26 23 21 15 9 8 8 9 9 10 9 9 17 24 24 21 17 19 36 58 64 63 65 65 65 66 66 67 69 70 65 50 44 52 60 66 69 68 61 60 66 71 74 75 72 60 51 54 57 53
14 15 15 15 14 13 12 11 10 8 8 6 5 5 5 4 4 4 5 6 7 7 6 6 5 5 6 5 5 5 5 5 5 6 6 7 7 8 8 8 8 6 5 7 16 23 23 23 23 20 14 9 8 8 9 9 9 9 14 28 34 31 28 28 36 53 62 58 58 60 61 63 64 65 66 67 69 67 58 58 65 68 71 71 59 45 46 57 66 74 77 78 74 62 53 53 57
9 10 12 13 14 16 16 15 13 11 9 5 5 5 5 5 4 4 4 4 4 4 4 5 5 10 16 10 6 6 5 5 6 6 6 6 7 7 8 8 7 6 5 12 21 18 17 22 23 19 13 9 8 9 9 9 10 11 20 28 32 35 37 41 49 58 58 52 55 58 59 61 62 65 67 65 68 68 64 67 71 72 73 65 47 37 41 50 57 66 76 80 80 76 66 55 53
4 4 6 7 10 15 18 18 16 14 10 6 5 6 6 5 5 5 5 4 4 4 5 6 5 10 18 14 8 6 5 6 6 7 7 6 7 7 8 8 6 5 6 14 19 14 18 25 21 16 11 9 8 8 10 10 10 12 20 28 32 36 41 47 52 56 52 46 53 58 56 58 61 65 67 65 66 68 66 69 73 73 72 60 46 43 43 44 45 50 61 72 79 81 79 71 60
4 3 3 3 5 11 17 21 20 16 12 8 7 6 6 6 5 5 5 5 5 5 5 6 7 7 10 10 8 6 6 7 8 8 8 7 8 8 8 7 6 6 8 12 14 16 23 25 18 13 9 8 8 9 11 11 11 16 26 33 34 35 40 45 46 44 39 40 48 48 47 53 59 64 67 65 64 67 66 68 71 70 70 61 54 57 54 45 40 39 43 52 64 74 80 83 78
4 4 4 3 3 6 14 22 21 17 13 10 9 7 7 6 6 6 5 6 5 6 6 6 8 7 7 9 9 7 7 8 8 9 8 9 9 7 7 7 7 7 8 9 13 23 28 23 16 11 9 8 8 10 11 12 16 24 32 34 31 32 34 34 32 28 25 32 37 35 38 47 56 64 66 65 65 66 67 68 68 67 70 67 62 66 65 56 46 40 39 40 45 54 64 75 84
5 4 4 3 3 3 10 19 18 15 13 12 12 10 8 7 6 6 6 6 6 6 7 8 7 7 7 8 7 6 7 8 8 9 8 9 9 7 7 7 7 7 9 13 22 31 30 23 15 10 8 8 9 11 11 14 20 29 33 31 27 26 24 21 19 18 20 24 26 28 36 45 54 63 64 65 64 62 64 69 70 69 72 72 69 66 59 55 51 47 46 45 43 41 45 53 66
5 4 4 3 3 4 9 13 12 10 11 12 13 13 11 9 7 7 6 7 7 7 8 8 8 8 7 7 7 7 7 7 8 9 9 10 10 7 6 8 9 10 15 24 33 37 33 27 17 10 8 8 9 10 10 14 23 31 31 25 21 19 16 16 16 17 20 21 22 27 36 44 52 59 61 60 58 55 57 63 69 71 72 69 62 52 43 43 47 50 54 56 52 45 40 40 46
6 4 4 3 3 4 7 8 7 6 8 12 14 15 14 11 9 8 7 8 8 8 9 9 10 10 9 8 8 7 7 8 8 9 10 11 10 8 9 12 13 17 25 34 39 39 36 30 20 12 9 8 9 9 11 21 30 31 27 21 17 15 14 15 16 17 20 20 21 25 31 41 49 54 54 51 49 48 46 48 54 58 57 51 43 37 34 33 37 45 53 55 55 54 48 43 42
7 4 4 3 4 4 5 5 5 5 7 11 15 17 16 14 12 10 8 10 10 10 10 10 10 10 10 10 9 8 8 8 10 11 11 12 12 10 10 15 19 25 33 40 41 39 37 32 23 15 10 9 9 9 18 29 32 27 22 19 16 15 16 16 17 18 19 19 20 22 27 37 46 49 45 40 40 40 38 34 35 37 38 37 35 33 30 28 29 34 37 40 49 56 56 52 48
7 5 4 3 4 3 3 5 3 4 8 12 15 18 18 16 14 12 11 11 11 10 11 11 11 9 8 8 8 8 9 9 11 12 12 13 13 11 10 14 22 31 38 41 40 40 40 37 30 23 18 16 15 16 25 31 27 22 20 19 16 15 16 16 18 20 19 18 18 20 26 35 43 44 39 35 36 37 37 35 33 36 38 38 35 31 28 26 25 25 25 32 47 57 58 56 53
8 5 4 3 4 3 3 4 3 5 9 12 16 19 19 19 16 14 13 12 12 12 12 11 10 9 8 9 8 8 9 10 10 11 12 14 14 12 10 14 22 32 39 40 38 40 43 42 39 34 31 30 28 27 29 28 23 20 20 18 17 16 16 17 19 20 18 16 15 18 25 36 42 42 39 37 36 38 41 43 43 43 42 39 33 28 24 22 20 19 21 31 44 52 53 51 49
9 5 4 4 3 4 3 3 5 6 9 12 18 22 21 20 18 16 15 13 13 13 13 12 11 10 10 9 10 10 11 11 11 12 13 15 16 14 15 21 25 32 38 39 39 42 44 45 44 40 38 36 33 30 26 23 20 18 18 18 17 17 17 18 19 19 17 14 15 20 28 37 42 42 40 38 38 40 43 45 46 45 40 33 26 21 18 16 16 15 16 21 29 35 36 36 38
9 5 4 4 3 3 3 3 5 6 8 13 21 25 23 22 20 18 16 16 15 14 14 13 13 13 12 12 12 13 13 14 13 13 15 18 20 16 20 31 34 35 38 38 41 46 48 48 47 43 40 35 28 24 19 17 18 17 16 17 18 18 18 18 18 17 15 14 17 22 30 38 41 41 41 42 44 44 44 44 43 39 32 24 17 13 11 12 12 12 13 13 16 18 18 24 34
9 6 4 4 3 3 3 3 4 5 8 15 25 27 25 24 21 19 18 17 17 16 16 15 16 16 15 15 15 15 14 13 13 14 16 20 24 20 20 32 38 38 36 35 42 48 52 54 52 49 44 35 23 16 14 15 17 16 15 16 18 18 18 17 17 17 15 15 19 24 30 35 36 38 40 43 46 45 41 36 31 26 20 14 10 8 8 10 11 10 10 10 11 10 11 19 29
10 6 5 4 4 3 3 3 3 6 11 16 25 28 27 25 22 21 19 18 17 17 17 17 18 17 17 16 14 15 14 14 14 15 17 20 26 24 17 24 33 34 32 32 40 49 55 57 55 53 52 44 25 13 12 14 15 14 14 16 17 18 18 17 17 16 15 16 20 23 27 29 28 30 34 39 38 31 24 17 13 11 10 8 6 7 8 9 10 10 9 9 9 8 8 11 16
11 6 5 5 4 4 3 3 3 6 10 15 23 28 29 26 23 22 20 19 18 18 19 17 18 18 16 16 16 16 15 18 18 21 37 43 44 36 17 17 26 29 35 38 44 51 55 56 54 52 54 48 27 12 12 13 13 13 13 16 17 19 18 17 17 17 16 16 19 23 25 24 22 23 27 28 22 16 15 15 14 10 6 4 4 6 7 8 9 9 9 9 8 8 8 7 10
11 7 6 6 4 5 4 3 4 5 8 13 22 28 28 26 24 23 21 22 20 19 20 21 25 22 18 18 20 22 21 27 29 38 65 73 70 57 24 16 24 30 42 47 49 54 55 52 49 47 48 43 25 12 12 11 12 12 13 16 18 21 20 18 19 18 17 16 18 21 23 22 20 21 20 18 16 18 24 25 23 20 14 9 5 5 6 6 7 6 7 7 7 7 7 7 9
12 8 7 7 5 5 4 3 4 5 8 13 21 29 30 26 26 25 21 24 31 34 30 30 36 29 24 25 25 28 25 29 43 61 80 77 77 71 38 25 27 31 44 49 50 53 52 47 43 43 45 39 23 14 15 13 13 13 13 17 19 22 21 19 19 18 17 16 18 21 24 24 23 22 20 18 19 21 23 22 21 20 19 17 11 7 6 5 5 5 5 5 6 6 6 6 6
12 9 7 8 7 6 5 4 4 5 9 13 20 30 32 26 26 26 22 23 37 52 48 43 51 43 30 28 27 28 20 24 52 74 79 70 74 78 55 38 33 37 54 57 54 51 48 46 43 43 45 37 22 15 17 15 13 13 14 17 19 22 21 19 19 17 17 16 18 22 24 25 25 24 22 19 17 14 13 13 13 13 15 19 15 9 6 4 4 4 4 4 5 5 6 6 6
12 10 8 9 8 7 6 5 4 5 7 12 20 29 33 32 28 26 24 24 30 51 62 58 66 65 49 36 28 27 27 44 68 72 75 76 75 72 59 51 47 54 71 68 60 55 51 49 45 43 43 35 24 16 16 14 12 13 14 17 19 21 20 18 18 17 16 16 17 20 22 24 26 26 25 19 12 8 7 7 8 10 13 16 13 6 4 4 4 4 4 5 5 5 5 5 6
13 11 9 9 9 9 7 6 5 4 6 13 23 28 32 35 33 27 26 26 26 40 63 67 67 72 71 63 53 52 56 72 84 71 71 77 65 57 62 72 73 69 73 71 67 64 56 49 44 41 40 34 26 19 16 14 13 14 15 18 20 21 20 18 18 17 16 16 16 18 20 22 25 26 24 18 10 5 5 5 5 7 10 9 6 4 4 4 4 5 5 5 5 5 5 5 5
14 12 10 10 10 10 8 8 6 5 8 15 24 27 26 29 32 30 26 27 29 32 48 63 68 72 76 78 82 86 78 79 90 78 69 70 61 57 62 76 81 71 70 73 74 71 61 55 50 46 44 38 32 24 19 16 16 16 17 19 21 21 20 18 18 17 16 16 16 17 19 20 20 20 19 14 9 6 4 4 4 4 5 4 4 4 5 5 5 5 4 5 5 4 5 5 5
15 13 11 11 11 11 9 9 7 7 11 16 24 27 24 28 30 30 28 27 31 32 35 51 71 78 72 76 86 88 80 77 85 84 79 71 60 54 53 63 73 70 71 72 69 68 65 63 60 55 52 46 40 32 24 19 17 17 18 21 23 21 19 17 17 17 16 16 15 16 17 17 17 16 15 12 8 6 5 4 4 4 4 3 4 4 4 5 4 4 4 4 4 5 5 5 6
16 14 12 12 11 12 11 10 8 8 13 16 22 25 25 30 30 28 30 29 30 33 32 38 62 79 75 76 79 75 78 77 70 72 74 59 49 55 57 59 62 60 62 61 58 59 58 58 57 55 55 52 46 39 29 23 20 20 21 22 22 19 17 17 17 16 16 15 15 15 15 15 15 15 14 12 9 7 5 5 4 4 4 4 4 4 4 4 4 5 5 5 5 6 6 7 8
18 16 13 13 13 13 12 11 10 9 13 15 20 26 28 31 31 30 30 30 30 33 34 32 43 65 76 84 85 80 84 81 70 68 64 48 46 60 62 58 56 52 49 45 46 54 54 52 49 47 48 49 48 44 37 31 27 25 25 23 21 20 19 19 18 18 16 16 15 15 15 14 14 14 13 12 9 7 6 5 5 4 4 4 4 4 4 4 5 5 5 5 5 6 7 7 7
20 17 14 13 14 14 13 12 10 10 12 14 19 25 28 31 33 33 31 30 30 32 35 33 32 44 67 85 88 81 77 76 77 72 60 48 45 49 50 50 51 47 41 35 40 56 63 59 54 49 46 46 48 47 43 40 35 30 27 25 25 26 27 25 24 22 19 17 15 15 14 14 13 13 12 11 9 7 7 6 5 5 4 4 4 4 4 4 5 5 5 5 5 4 5 5 5
21 19 15 14 14 14 14 13 11 11 11 13 20 24 26 29 33 33 32 32 31 32 34 35 31 30 46 66 71 65 62 70 83 75 58 52 45 40 39 37 39 39 41 47 50 58 66 67 65 59 51 50 53 52 49 44 38 34 34 35 38 39 38 34 28 23 19 16 15 15 14 13 13 12 11 10 9 8 7 7 6 6 5 4 4 4 4 5 4 5 4 4 5 4 5 5 5
22 21 17 15 15 15 15 14 12 11 11 13 19 25 26 27 30 31 31 32 33 35 34 32 31 26 32 46 51 52 53 61 82 84 71 63 54 46 40 30 31 33 38 52 59 63 70 72 68 61 56 58 60 58 54 49 47 49 53 55 55 52 44 34 25 19 17 17 15 14 14 13 12 12 11 10 9 8 7 7 6 6 5 5 5 5 4 5 5 5 5 4 5 5 5 5 5
23 22 18 16 16 16 16 15 13 12 12 13 16 26 31 29 29 29 30 31 30 33 33 30 31 29 30 34 36 41 41 46 75 90 80 72 63 52 45 35 31 31 32 41 52 61 67 68 63 60 62 68 71 69 67 65 65 64 60 55 49 44 36 29 25 23 22 19 16 15 14 13 12 11 11 10 9 8 7 6 6 6 5 5 5 5 5 5 5 5 5 5 5 5 5 5 5
24 23 20 17 16 17 17 15 15 16 16 13 13 25 35 34 29 26 27 29 29 30 31 30 31 31 29 28 28 31 33 50 84 93 75 69 68 56 48 42 36 34 34 37 45 52 56 57 59 61 65 70 73 73 70 67 63 55 47 43 40 38 35 33 32 31 25 20 17 15 14 13 12 12 11 11 10 9 8 7 7 6 6 5 5 5 5 5 5 5 5 5 5 5 5 5 5
26 24 21 19 18 18 18 16 16 17 16 14 15 22 32 39 39 31 25 26 28 28 30 31 31 29 26 27 27 24 36 71 96 90 73 70 70 59 49 44 37 35 37 41 45 47 48 51 55 60 63 67 71 70 64 59 55 51 50 51 50 46 41 35 31 26 21 18 17 16 15 14 13 13 13 12 12 11 11 10 9 8 7 6 5 5 6 6 5 5 5 5 5 5 5 5 5
26 24 23 20 20 19 18 18 17 16 14 14 17 20 24 35 44 39 27 23 26 27 30 31 29 28 26 30 31 24 40 84 100 84 73 68 63 58 50 41 38 40 43 44 45 44 44 45 48 53 56 63 74 78 74 70 68 67 65 62 56 48 38 30 25 22 20 20 19 18 18 17 16 15 15 14 14 14 14 14 14 13 11 9 8 7 6 6 6 6 5 5 5 5 5 5 5
27 25 25 22 21 21 20 19 18 17 15 15 15 17 22 35 45 44 33 23 23 27 29 29 27 26 26 31 36 28 35 72 94 83 71 64 61 65 60 45 43 49 51 51 50 48 46 46 50 54 58 68 79 83 82 80 79 76 70 60 49 40 34 30 27 26 25 24 24 24 23 22 20 19 18 17 16 17 17 17 17 17 16 15 14 12 10 9 7 6 6 6 6 6 5 5 5
29 27 26 24 23 22 21 20 19 18 17 16 15 13 21 36 42 41 36 29 26 27 28 27 25 25 26 28 32 37 39 56 81 90 81 69 65 73 74 58 49 54 60 64 65 63 61 61 63 66 69 74 78 77 76 76 76 73 65 55 46 41 38 36 34 32 31 31 31 30 29 27 25 23 21 19 19 19 19 19 19 19 19 19 18 17 16 14 12 11 9 8 7 7 7 7 6
31 29 27 26 24 23 23 22 20 19 18 18 17 14 16 26 32 34 36 33 28 24 23 24 23 24 28 26 27 43 57 63 78 91 88 77 70 75 81 69 56 58 65 74 77 76 75 74 75 76 76 76 75 74 73 73 72 68 62 54 47 44 41 40 40 39 38 38 37 36 34 32 29 26 24 23 22 22 22 21 22 22 22 21 20 19 19 18 17 16 15 13 12 10 10 9 9
34 30 28 27 25 25 24 23 22 21 20 19 18 17 15 16 24 33 36 33 24 17 18 20 21 22 23 26 33 48 66 76 85 92 89 86 83 84 87 79 66 64 66 70 70 69 69 70 70 72 72 72 72 70 68 66 63 59 55 51 47 46 46 46 46 45 43 42 41 40 38 36 33 31 30 29 28 27 27 26 25 25 24 23 22 21 21 20 19 18 18 17 16 15 14 13 11
36 31 29 27 26 26 25 25 24 22 22 21 18 18 17 16 18 24 28 28 20 13 15 17 17 18 16 27 49 61 66 70 80 93 95 89 81 79 85 85 76 69 63 60 58 57 57 58 58 58 59 60 62 64 66 63 60 57 54 53 52 52 52 52 51 50 48 47 45 43 41 40 39 38 37 37 36 36 36 34 33 32 30 28 26 25 24 23 22 21 20 20 19 17 16 16 15
37 34 31 28 28 27 25 25 25 24 23 22 20 19 18 18 16 15 16 18 16 12 14 14 12 16 16 24 46 62 68 66 69 86 99 94 78 68 76 87 84 74 64 58 57 56 56 55 55 57 57 56 59 64 68 68 66 64 62 60 59 58 59 61 60 58 55 52 49 46 44 42 42 43 43 43 44 44 42 41 40 39 39 38 36 33 30 28 26 24 23 22 22 21 19 18 17
38 37 34 30 29 28 27 27 26 26 24 21 21 20 19 19 17 16 15 14 14 13 14 13 12 16 20 22 29 41 59 68 66 75 91 95 83 70 75 85 82 74 67 64 62 60 58 58 58 58 58 58 61 64 66 68 69 69 67 64 63 65 70 73 70 65 60 55 51 49 47 45 45 45 46 48 48 46 44 43 44 45 46 47 46 43 40 37 34 31 28 27 26 25 24 22 20
39 39 37 33 32 29 27 27 26 25 25 21 20 21 21 23 22 19 17 15 14 14 14 13 13 16 20 22 25 33 49 62 62 67 79 87 85 81 82 83 76 70 68 65 63 61 58 55 53 53 56 61 66 67 67 68 70 71 69 67 69 75 81 81 75 70 67 63 57 52 50 48 48 49 51 52 50 47 46 46 48 49 50 51 51 50 48 46 44 42 38 35 32 29 28 27 25
38 38 39 37 34 30 26 27 27 26 26 23 23 23 22 24 24 19 17 17 16 15 15 15 14 16 18 20 26 38 52 58 58 63 74 84 91 87 81 82 76 68 65 61 58 57 53 48 46 46 52 61 69 72 72 72 71 71 71 72 75 80 81 79 75 73 72 70 65 61 56 53 52 54 57 56 52 49 49 50 52 53 53 54 55 54 54 52 49 48 45 42 39 36 33 30 28
35 37 40 38 36 33 30 29 27 25 27 25 24 24 22 22 23 20 19 19 18 17 17 16 15 16 18 18 21 32 48 56 55 58 63 72 88 88 78 82 80 67 62 57 51 51 52 52 52 51 55 62 69 74 75 74 74 74 75 77 78 78 78 79 80 81 80 78 74 70 66 62 61 62 62 59 54 52 52 53 55 56 56 57 58 57 56 54 52 50 49 47 44 41 38 35 32
35 38 38 37 38 39 36 33 30 27 28 27 24 22 22 22 21 21 22 21 21 19 18 17 17 17 18 19 20 25 39 52 55 57 53 54 78 91 83 83 80 64 55 51 48 51 54 56 61 65 68 71 75 79 80 80 80 81 82 82 82 81 80 81 83 88 91 88 83 78 75 72 71 69 65 60 56 55 55 56 56 58 59 60 60 58 56 54 53 51 49 47 45 42 40 38 35
34 36 35 35 37 38 38 36 35 33 30 29 27 23 21 22 21 23 25 23 23 22 20 19 18 19 20 22 25 26 34 46 54 58 55 50 65 81 87 92 82 61 53 52 51 52 52 53 57 64 70 73 75 76 76 77 78 80 82 81 81 81 79 78 77 83 90 93 90 86 83 80 76 72 66 61 58 58 58 58 59 60 62 62 60 58 55 53 52 50 48 45 42 38 37 35 33
35 34 33 35 36 36 39 39 37 36 34 33 30 27 30 30 24 24 27 25 25 24 22 21 19 20 22 24 28 29 31 40 47 50 50 47 48 57 76 91 77 56 55 58 54 49 48 49 49 53 60 66 69 67 64 63 64 64 62 58 56 58 60 61 60 63 73 82 86 86 84 82 78 72 66 62 60 60 60 61 62 64 65 64 60 56 54 54 51 48 43 39 36 33 31 30 29
Wind_Speed
33 33 32 32 31 31 31 29 29 31 31 29 30 31 26 24 26 28 32 34 34 31 27 26 25 24 23 24 24 25 28 29 30 28 25 25 27 27 27 26 25 26 26 25 24 24 24 23 22 21 18 16 15 14 10 7 5 5 6 7 9 10 11 12 13 14 15 16 16 17 18 19 19 19 16 14 14 13 12 11 10 10 10 11 11 11 11 10 9 8 8 8 8 8 7 6 6
34 34 33 33 32 32 33 31 30 32 33 31 30 32 27 24 28 29 34 36 34 32 29 28 27 24 23 24 25 27 30 30 30 28 27 27 28 27 27 25 25 26 25 24 24 24 24 23 22 20 18 16 15 13 9 6 5 5 6 7 9 10 11 12 13 14 15 16 16 17 18 18 19 18 16 13 13 12 12 10 9 10 10 10 10 11 11 10 9 8 8 8 8 8 7 6 6
36 35 35 34 34 33 34 34 32 33 35 34 31 33 28 25 29 31 35 36 35 33 30 29 27 25 24 24 26 29 31 30 28 27 26 27 26 26 25 25 25 25 24 24 24 24 23 23 21 18 17 16 14 12 8 6 5 6 7 8 9 10 12 13 14 14 15 16 16 17 17 18 18 18 15 13 12 12 11 10 9 9 9 10 10 10 10 10 9 8 8 7 8 8 7 7 6
37 37 37 36 36 35 36 36 34 34 35 34 32 33 30 27 31 33 34 36 35 33 30 30 28 26 24 25 27 30 31 29 26 26 26 26 26 25 25 25 25 24 23 22 23 23 22 22 20 17 16 14 12 10 7 6 6 6 7 8 10 11 12 13 14 15 15 16 16 17 17 17 17 17 14 12 12 11 11 10 8 8 9 9 9 9 9 9 9 8 7 7 7 7 7 7 6
40 39 38 38 38 38 37 37 37 36 35 34 32 34 32 29 33 35 34 35 34 32 30 29 28 26 25 26 28 30 30 27 26 25 25 26 25 25 24 24 24 23 22 21 22 22 21 20 18 15 14 12 10 8 7 6 6 7 8 8 10 11 13 14 15 15 16 16 16 17 17 17 17 16 14 12 11 10 10 9 8 7 8 8 9 9 9 9 9 8 8 7 7 7 7 7 7
42 41 41 40 40 40 39 39 38 36 35 33 32 34 33 31 34 35 35 34 32 31 29 28 28 27 27 27 28 29 28 26 25 25 25 25 24 23 23 22 22 21 21 21 22 21 20 19 16 13 11 9 8 7 6 6 6 7 8 9 10 11 13 14 15 16 16 16 16 17 17 16 16 15 14 12 10 9 9 9 8 6 7 7 8 8 8 8 8 8 7 6 6 6 6 6 6
44 44 44 42 43 43 42 42 40 37 36 33 31 34 36 34 34 34 34 33 31 29 28 28 28 28 28 28 29 29 27 25 24 24 24 23 22 21 21 20 20 21 21 21 20 19 19 18 14 11 9 8 6 5 5 6 6 7 8 9 10 11 13 14 15 16 16 17 17 17 17 16 15 14 13 11 10 8 8 8 7 6 6 6 7 8 8 8 8 8 7 6 6 5 5 5 6
45 45 45 44 46 45 43 44 42 40 38 35 33 37 38 35 34 33 32 31 29 29 28 28 29 29 29 29 30 29 26 24 23 23 22 21 20 19 19 19 20 20 20 20 19 18 18 17 13 9 7 6 5 5 5 6 6 7 8 9 10 11 13 14 15 16 17 17 17 17 17 16 14 13 12 11 10 8 7 7 6 6 6 6 7 7 8 8 7 7 7 6 5 5 5 5 5
43 44 43 42 44 44 42 43 42 40 39 39 40 41 39 36 34 32 31 30 28 28 28 29 29 30 30 31 30 28 25 22 22 22 21 19 18 18 18 19 19 20 20 20 19 19 18 15 11 8 6 5 4 5 5 6 7 7 8 9 10 12 13 14 15 16 17 17 17 17 17 16 13 12 11 11 10 8 7 7 6 6 6 7 8 8 8 8 7 7 7 6 6 5 5 5 5
41 41 41 39 41 41 39 38 38 37 38 41 43 42 41 38 34 32 31 30 28 28 28 29 30 30 31 31 29 26 23 21 21 21 19 18 17 18 19 19 20 20 20 21 20 19 17 13 10 7 5 5 5 5 6 6 7 7 8 10 11 12 14 15 16 17 17 18 17 17 16 15 13 12 11 10 10 9 8 7 7 7 7 8 9 9 8 8 8 7 7 7 7 6 5 5 5
40 39 38 38 38 37 36 34 33 33 35 39 40 40 40 38 36 33 32 32 29 28 29 30 31 31 31 30 26 23 22 20 20 19 18 18 18 18 19 20 20 21 20 20 20 18 14 11 9 7 6 6 6 6 7 7 7 8 9 10 12 13 14 15 16 17 18 18 17 16 16 15 13 13 12 10 10 10 9 9 8 8 9 10 11 10 10 9 9 8 8 7 8 7 6 5 5
40 39 38 38 38 36 35 32 31 32 33 35 36 35 35 35 35 35 35 34 31 30 30 31 31 31 30 27 23 22 21 20 20 19 18 18 18 19 19 20 20 20 19 19 18 14 11 10 9 8 7 7 7 7 7 8 8 8 9 11 12 14 14 15 16 17 17 17 16 16 15 14 14 13 12 10 10 10 10 9 10 10 11 11 11 11 11 10 10 10 9 9 8 9 8 7 6
41 40 38 39 38 36 35 33 31 32 33 35 34 30 28 29 30 32 34 33 31 30 31 30 29 29 27 25 22 21 20 20 20 20 18 18 19 19 19 19 19 18 17 16 14 11 10 10 9 9 8 8 8 8 8 8 8 9 10 11 12 13 14 15 16 16 16 16 15 15 14 14 13 13 12 11 10 10 10 10 10 11 11 11 11 10 11 10 10 11 11 10 10 10 10 10 9
40 40 39 40 39 36 35 33 33 33 34 36 32 27 25 25 26 27 28 27 26 27 28 27 26 26 24 23 21 20 19 20 21 20 18 18 19 19 18 18 18 17 14 13 12 10 10 10 10 9 9 9 8 8 7 8 8 9 9 11 12 13 14 15 16 16 14 14 14 13 13 12 12 12 11 10 10 10 9 9 9 10 10 10 9 10 10 11 11 11 12 12 11 11 11 12 11
37 38 38 40 39 37 35 34 33 33 36 37 31 27 24 24 24 23 23 22 23 25 25 24 24 24 22 22 21 20 20 21 21 20 19 18 18 18 19 18 17 15 13 12 12 11 11 11 11 10 10 9 8 8 7 8 8 9 10 11 12 13 14 14 15 15 13 14 13 12 12 11 11 12 10 9 9 9 9 8 8 9 9 9 9 10 10 11 11 11 11 12 12 12 12 13 13
32 33 34 36 37 37 36 34 33 34 38 37 31 28 25 25 25 23 22 21 22 23 23 23 24 22 21 22 23 22 20 20 20 19 19 18 18 18 19 19 17 14 13 13 12 12 12 12 11 11 10 9 9 8 8 8 8 9 10 12 13 13 13 13 14 13 14 14 13 11 11 11 11 11 10 8 8 8 8 7 6 8 9 8 9 10 11 11 12 12 11 11 12 12 13 14 14
31 31 31 32 33 35 36 34 33 35 39 36 32 30 27 27 26 24 23 22 23 23 24 24 24 23 23 24 23 21 19 19 19 19 19 18 18 18 19 18 15 14 14 14 13 12 13 13 12 11 10 10 9 8 8 8 8 9 10 12 12 12 12 12 12 12 13 13 12 11 11 11 11 10 9 8 8 8 8 9 8 8 9 9 10 11 12 13 13 13 13 12 12 12 13 14 15
31 31 30 30 31 34 34 35 35 38 39 36 33 31 28 28 27 26 25 24 25 25 25 25 25 24 25 24 22 21 20 20 19 19 20 18 18 18 18 17 15 14 14 14 13 13 13 12 12 11 11 10 10 9 8 8 9 10 10 11 11 11 10 10 10 10 11 11 11 12 11 10 10 10 9 9 8 8 9 9 10 10 10 10 10 12 13 14 14 14 14 14 14 14 14 14 15
30 30 30 29 31 32 33 35 37 39 39 37 34 31 30 29 29 28 27 26 26 26 25 25 25 25 24 23 22 21 20 20 20 20 20 19 18 18 18 17 15 15 14 13 13 13 12 12 12 12 12 11 11 10 8 8 9 10 10 10 10 9 8 8 8 9 10 10 11 11 11 9 9 9 9 9 8 8 8 8 9 10 10 10 11 12 14 14 15 15 15 15 15 14 14 15 15
30 30 29 30 31 31 32 35 36 38 39 37 34 32 30 30 30 30 29 28 27 27 25 24 23 24 24 23 22 21 21 21 21 21 21 20 19 19 19 17 16 15 13 13 12 12 12 12 13 13 13 12 11 10 9 9 10 10 10 9 8 7 6 6 7 9 10 10 11 11 10 10 9 8 9 9 8 8 8 7 8 9 9 10 11 12 13 13 14 15 16 16 16 15 15 15 15
30 29 29 30 30 31 33 34 35 37 38 37 35 32 30 30 29 30 29 28 27 27 26 25 23 23 24 23 22 22 22 22 22 22 21 21 20 19 19 18 16 14 13 13 13 13 13 13 13 14 13 13 12 10 10 10 10 10 9 8 7 6 5 6 7 9 10 11 11 10 10 10 9 8 8 8 8 8 8 7 7 8 9 10 11 12 12 13 13 14 16 17 17 17 16 16 16
29 28 30 29 29 31 33 34 35 36 37 37 35 32 30 29 29 29 28 27 27 27 27 27 27 27 26 25 24 23 23 23 23 23 22 21 20 20 20 19 17 15 14 14 14 14 14 14 14 14 14 13 12 11 11 11 10 10 9 8 7 6 5 6 7 9 10 11 11 11 10 9 9 8 8 8 8 9 9 8 8 8 9 10 11 12 13 13 13 14 15 16 17 18 17 17 17
29 29 30 29 30 32 32 33 34 35 36 36 35 32 29 28 28 29 28 29 30 29 29 29 30 30 28 25 24 24 24 24 24 24 23 23 21 21 21 20 18 16 15 15 15 15 15 15 15 14 14 13 13 13 12 12 11 10 9 8 7 6 6 6 8 9 10 10 11 11 10 9 9 8 8 8 8 9 10 10 9 9 10 11 12 13 13 13 13 13 13 14 15 16 17 18 18
31 30 30 29 30 31 32 33 34 35 36 35 34 31 29 28 28 28 29 30 30 30 31 31 31 30 27 25 24 24 25 24 24 24 24 23 23 22 22 21 19 18 17 17 17 16 16 15 15 14 14 14 14 14 13 12 11 11 10 9 8 7 7 7 8 9 10 11 11 10 10 9 9 8 9 9 9 10 10 10 10 11 11 12 12 12 12 12 12 12 12 12 13 15 17 18 19
32 30 29 29 30 31 31 32 33 34 35 35 33 31 29 28 28 28 30 31 31 31 31 31 31 29 26 24 24 24 24 24 24 24 24 24 24 23 22 21 20 20 19 18 18 17 17 16 15 15 15 14 14 14 14 13 12 11 11 10 9 8 8 7 8 9 10 11 10 9 9 8 8 8 9 9 10 10 10 10 11 11 11 11 11 11 12 11 11 11 11 11 12 14 15 18 19
32 30 29 29 30 31 31 31 33 34 35 35 33 30 28 27 27 28 29 30 31 31 31 31 30 28 25 24 25 25 25 25 24 24 25 25 24 23 22 21 21 21 20 19 19 18 17 17 16 16 16 15 15 15 15 14 13 12 11 10 10 10 9 8 8 9 10 10 9 8 8 8 8 8 9 10 11 11 11 11 11 11 11 11 12 12 12 12 11 10 10 11 12 13 14 16 18
32 31 30 29 30 32 30 30 32 33 34 35 33 31 29 27 27 28 30 29 30 30 30 30 29 28 26 26 26 26 26 25 24 26 27 27 26 24 23 22 21 21 21 20 19 18 18 17 17 17 17 17 16 16 15 14 13 13 12 11 11 11 10 9 8 9 9 9 8 7 7 8 9 9 10 11 11 11 10 11 11 11 12 12 13 13 13 12 12 11 11 12 12 13 14 15 17
32 31 30 30 31 31 29 29 31 33 35 35 33 32 29 27 27 29 29 29 30 30 30 31 31 29 28 28 27 25 24 23 24 25 28 30 28 25 24 23 22 21 20 20 19 19 18 17 17 17 18 18 17 16 15 15 14 14 13 12 12 11 10 10 9 9 9 9 8 7 7 8 9 10 10 10 9 9 9 10 11 12 13 13 14 14 14 14 13 13 13 13 13 13 14 15 17
33 32 31 30 31 30 28 28 30 32 34 34 33 31 28 27 29 30 30 31 32 32 33 33 33 32 29 27 24 24 23 23 24 21 23 26 24 23 23 23 22 21 20 20 20 20 19 18 17 16 17 18 18 16 16 15 15 14 14 13 13 12 11 11 10 9 9 9 8 7 8 8 9 9 9 9 9 8 9 10 11 12 13 14 14 15 15 15 15 15 15 15 14 14 14 15 17
34 33 32 31 32 30 27 27 28 31 33 33 33 29 27 30 31 31 32 34 35 36 37 37 36 33 29 27 25 25 25 24 24 19 17 22 21 21 24 23 22 21 20 20 20 20 20 20 19 17 17 18 18 17 16 16 15 15 14 14 14 13 12 11 11 10 10 9 9 8 8 8 8 9 9 10 10 10 11 13 14 15 15 15 15 15 16 16 16 17 17 17 16 16 16 17 17
35 34 34 33 32 30 28 26 26 29 31 32 32 27 28 32 31 31 33 34 35 37 38 39 39 35 30 29 28 27 26 24 24 20 20 25 24 23 24 22 22 21 21 21 21 21 21 20 20 18 18 18 18 18 17 16 15 14 14 14 14 14 13 12 12 11 11 11 10 10 10 9 9 9 10 11 13 14 16 17 18 18 17 17 17 17 17 17 18 18 18 18 18 18 18 18 19
37 37 35 34 32 30 28 25 26 29 30 32 32 27 31 34 32 33 34 32 31 32 35 35 34 34 34 33 31 29 26 25 25 22 24 26 24 22 20 22 24 24 23 22 21 21 20 20 20 19 19 19 18 18 16 15 14 14 14 14 15 14 13 13 13 13 12 12 12 11 11 11 11 11 12 13 14 16 17 18 19 19 18 18 18 18 19 19 19 19 19 19 19 19 20 20 20
39 37 36 34 32 30 28 26 26 29 29 32 31 29 34 35 33 34 33 30 28 30 34 33 28 28 31 32 33 30 26 26 26 23 25 26 24 21 22 22 25 25 22 20 20 20 20 20 19 19 18 18 18 17 16 14 14 14 14 15 15 15 14 15 15 14 14 13 13 13 13 13 13 13 13 14 15 15 16 17 17 17 17 18 18 19 19 19 19 19 20 20 21 21 21 21 22
40 39 38 34 31 29 27 26 27 28 29 32 32 33 36 34 31 32 31 29 27 29 33 32 28 26 27 28 28 26 24 27 27 25 28 29 27 24 23 20 21 22 21 20 20 19 19 19 18 18 17 17 17 16 15 14 14 15 15 15 15 15 15 15 15 15 15 15 15 15 15 15 15 16 16 16 16 15 15 15 15 15 15 16 17 18 19 19 20 20 20 21 21 22 22 22 23
41 39 37 33 30 29 28 29 29 29 31 33 33 35 36 32 31 31 30 29 28 29 30 30 29 29 28 27 25 23 23 26 26 27 30 30 29 24 21 20 19 19 20 19 19 18 19 19 18 18 17 17 17 16 16 15 15 15 15 15 15 16 16 15 15 15 15 16 17 17 17 17 18 18 18 18 17 16 15 14 15 15 15 15 16 17 18 19 20 20 20 21 22 22 22 23 23
40 37 34 32 31 30 31 31 30 30 32 33 34 35 35 32 31 31 29 28 27 28 27 27 29 28 27 26 26 26 24 24 25 27 29 29 28 24 22 23 20 18 17 16 17 17 19 20 19 18 18 17 18 17 16 16 15 15 15 15 15 15 15 15 15 16 16 17 18 18 19 19 19 20 20 20 19 18 17 16 16 16 16 17 17 18 18 19 20 21 22 22 23 23 23 24 24
38 36 34 32 31 31 33 31 28 30 32 32 33 34 34 32 31 30 29 27 27 27 25 26 29 28 26 25 27 29 26 24 25 28 30 30 28 24 24 25 23 20 18 16 17 16 18 19 19 19 18 18 18 17 17 17 16 16 16 15 15 15 15 16 16 16 17 17 18 19 19 20 21 21 21 21 21 20 19 18 18 17 18 18 19 19 19 20 22 22 23 24 25 25 25 25 25
36 36 36 34 31 33 34 30 29 31 32 32 31 32 34 32 30 29 28 26 27 28 26 25 28 29 28 23 23 26 25 23 24 26 28 28 27 25 24 25 24 24 22 19 19 18 18 19 18 18 18 19 19 18 18 17 17 17 16 16 16 16 16 17 17 17 17 18 18 19 19 20 21 22 22 22 22 22 21 21 20 20 20 20 21 21 21 22 23 23 24 25 26 26 26 26 26
38 38 37 35 34 36 34 31 31 32 32 32 30 32 34 32 30 29 28 28 28 28 27 24 25 27 27 25 22 20 20 23 25 26 26 27 26 25 23 23 24 24 24 23 22 22 22 21 20 19 18 19 20 19 19 18 18 18 17 17 17 17 18 18 18 18 18 18 18 19 19 20 21 22 23 23 23 23 22 22 22 22 22 22 23 23 23 23 24 24 25 25 26 26 26 26 27
40 39 38 37 37 37 34 32 32 31 32 31 30 31 32 31 30 29 30 30 28 27 26 24 22 23 25 28 25 19 18 23 26 26 27 27 26 24 22 21 22 23 23 23 23 24 24 23 22 20 20 21 21 20 19 19 19 19 19 19 19 20 19 19 19 18 18 18 18 18 19 20 21 22 22 23 23 24 24 24 23 23 23 23 24 24 24 24 25 25 26 26 26 27 27 27 27
41 40 39 38 38 37 35 34 33 31 31 31 30 31 31 31 30 30 30 30 29 28 27 25 23 23 24 25 23 17 17 21 23 25 26 25 25 24 21 20 21 21 21 21 22 24 25 24 23 21 20 20 20 20 19 20 20 19 19 19 20 20 20 19 19 18 18 18 18 18 19 20 20 21 22 22 23 24 24 25 25 25 25 25 25 25 25 25 26 26 27 27 27 27 27 27 28
42 41 40 40 40 38 37 35 32 31 32 30 31 31 31 31 31 31 31 30 30 29 28 26 25 25 24 22 20 19 18 21 24 28 26 22 22 22 21 20 21 21 22 22 23 24 24 23 22 20 20 19 19 19 19 19 19 18 18 18 18 18 18 18 18 18 18 18 18 18 19 19 20 21 22 22 22 23 23 25 25 26 26 26 26 26 27 27 27 27 27 27 28 28 28 28 28
42 41 41 41 38 37 37 34 30 32 33 32 31 31 30 30 31 32 31 31 31 30 29 28 27 26 23 22 20 20 20 21 23 30 29 24 22 21 20 21 22 23 23 24 24 23 23 22 21 20 19 19 18 18 18 17 17 16 16 16 17 17 18 18 18 18 18 17 18 18 19 19 20 21 21 22 22 23 24 25 26 26 27 27 27 27 28 28 28 28 28 28 28 28 28 28 29
43 42 41 39 37 37 37 33 32 35 34 32 31 32 33 32 31 31 32 33 32 31 30 28 27 25 22 21 20 20 20 18 24 32 30 26 23 20 22 23 24 24 24 24 23 22 22 21 20 20 19 18 17 17 16 16 16 16 16 17 17 18 18 18 17 17 17 17 18 18 19 19 20 20 21 22 23 23 24 25 26 27 27 28 28 28 29 29 29 29 29 29 29 29 29 29 29
45 42 39 39 38 38 36 34 35 36 33 31 31 33 35 33 31 31 32 34 33 32 31 28 26 24 21 20 19 19 18 17 27 31 27 26 23 22 23 25 24 23 22 21 20 20 20 20 20 20 20 19 17 17 17 17 18 18 18 18 18 18 18 17 17 17 17 18 18 19 20 20 20 21 22 22 23 24 24 25 26 27 27 28 28 29 29 30 30 31 31 31 31 30 30 30 30
45 41 39 39 39 38 36 35 37 37 33 33 34 33 34 34 31 30 31 32 32 30 28 27 25 22 20 20 20 19 17 17 25 27 22 21 21 20 22 24 23 21 19 18 17 18 19 19 20 20 19 19 18 18 18 19 19 18 18 18 18 18 18 17 17 17 18 19 20 20 21 21 22 22 22 23 24 24 25 25 26 26 27 28 28 29 30 30 31 31 32 32 32 32 32 31 31
43 40 40 40 39 39 38 37 38 38 35 35 36 33 33 33 32 31 31 29 29 28 27 26 24 21 21 22 21 20 19 19 24 25 21 19 20 21 22 22 21 19 17 16 16 17 17 17 17 17 18 18 18 18 19 19 19 18 18 18 18 18 18 18 18 19 20 21 21 22 22 23 23 23 23 23 24 24 25 25 26 26 27 28 29 29 30 30 31 32 32 33 33 33 33 32 32
42 41 42 42 42 41 39 39 40 39 36 35 37 34 32 34 33 30 30 29 29 28 27 25 23 21 22 23 22 20 20 21 23 25 23 19 20 23 22 20 20 19 17 15 14 14 14 15 15 16 17 17 17 18 18 19 19 18 18 18 18 19 19 19 20 20 21 22 23 24 24 24 25 24 24 24 24 25 25 26 27 27 28 28 29 30 30 31 31 32 32 33 34 34 34 34 33
45 44 45 44 44 43 43 43 43 40 38 39 40 36 33 35 34 30 29 29 29 27 24 23 24 25 26 24 22 20 20 19 21 23 24 22 21 22 20 18 18 19 17 14 13 13 13 14 14 15 16 16 17 17 17 17 17 18 18 18 19 19 20 20 21 22 22 23 24 25 25 25 25 25 25 25 25 26 26 27 27 28 29 29 30 30 31 32 32 32 33 33 34 35 35 35 35
48 48 48 46 46 47 47 46 44 42 42 43 41 36 34 36 36 33 30 28 27 26 24 24 26 27 27 23 20 20 21 18 18 21 23 23 21 20 18 17 17 17 16 14 14 14 14 15 15 15 16 17 17 16 17 17 18 18 19 19 19 20 21 21 22 23 24 25 25 26 26 26 26 26 26 27 27 27 27 27 28 29 29 30 31 31 32 33 33 34 34 34 34 35 36 36 36
49 48 48 47 47 47 47 45 44 42 44 44 39 35 36 38 38 35 31 28 27 26 25 25 26 25 23 23 22 22 21 19 17 19 22 22 22 19 17 19 17 14 14 14 14 14 15 15 15 16 17 17 18 17 17 18 19 19 20 20 20 21 21 22 23 24 25 26 27 27 27 27 28 29 29 29 29 29 29 29 29 30 30 31 31 32 33 33 34 35 35 35 35 35 36 36 37
47 47 48 47 46 47 46 45 44 43 45 43 38 37 38 39 37 34 32 30 28 27 26 25 24 22 21 22 23 23 22 20 18 20 23 25 26 23 20 20 17 14 14 14 14 14 14 14 15 16 17 18 19 19 19 19 19 20 21 21 22 22 23 23 24 26 27 27 28 29 29 30 30 31 32 32 32 31 31 31 32 32 32 32 32 33 33 34 34 35 36 36 37 37 37 37 38
49 49 49 48 48 50 49 46 45 44 45 43 39 39 40 38 36 35 33 31 29 28 26 24 22 21 21 22 22 22 22 21 19 21 25 28 28 27 23 18 15 15 16 15 14 14 14 15 16 17 18 19 20 20 20 20 20 21 21 22 23 24 25 26 27 28 28 29 30 31 31 32 33 33 34 34 34 34 33 33 34 34 35 35 34 34 34 35 35 36 36 37 38 38 38 38 38
51 51 50 50 50 51 48 44 45 45 44 44 42 42 41 39 37 36 34 31 30 28 25 23 22 22 22 21 21 22 22 22 21 23 27 29 30 29 25 19 17 17 16 16 16 15 16 17 17 18 18 19 20 21 21 21 21 22 23 24 25 26 28 28 29 30 30 31 32 32 33 34 34 35 35 35 35 35 35 35 35 36 36 36 36 36 36 36 37 37 37 38 38 39 40 40 40
52 50 49 50 48 47 46 45 47 46 45 46 45 44 43 40 38 37 34 31 29 27 24 23 22 21 22 22 22 21 21 22 22 22 24 27 28 28 24 21 19 17 15 16 15 15 15 15 16 16 18 19 20 20 21 21 22 23 24 25 26 27 28 29 31 32 32 32 33 33 34 35 35 36 36 36 36 36 36 36 37 37 38 38 38 38 38 38 38 38 38 39 39 40 40 41 41
51 49 50 50 47 46 47 47 47 46 45 47 47 45 43 41 38 36 33 30 28 26 24 23 22 22 22 22 22 21 21 21 21 21 23 23 24 26 25 21 18 16 14 14 13 13 13 12 12 13 15 16 17 18 19 20 21 22 23 24 26 27 28 30 30 31 33 33 34 34 35 35 36 37 37 37 37 37 38 38 38 39 40 40 40 40 40 39 39 39 39 39 40 40 40 41 41
51 51 53 51 51 50 49 47 47 47 46 46 46 45 44 42 38 34 32 31 29 27 25 24 24 24 24 23 22 22 22 22 22 23 24 23 23 25 24 20 16 13 12 12 12 13 13 12 13 13 14 15 15 16 17 18 19 20 21 23 25 26 27 28 29 29 31 32 33 34 35 36 37 37 38 38 38 38 39 40 40 40 41 42 42 41 40 40 39 39 39 39 39 40 40 40 41
50 51 52 50 51 51 49 49 50 49 47 47 47 46 43 41 39 36 34 32 30 29 27 26 25 25 25 24 23 22 23 24 25 24 24 23 22 23 23 21 17 13 11 12 14 14 14 14 15 16 16 16 17 17 17 18 18 19 21 24 25 27 28 28 28 29 30 31 33 34 35 36 37 37 38 38 39 40 41 41 41 42 43 43 42 41 40 40 39 39 39 39 39 39 39 40 41
Wind_Direction
245 246 247 248 249 250 249 248 251 250 245 245 248 245 239 236 231 233 241 243 246 249 248 250 254 261 270 279 285 290 293 294 293 289 283 279 278 277 277 279 282 286 289 292 295 299 305 308 312 316 316 314 318 325 323 320 322 320 322 322 324 329 332 332 335 339 342 344 346 346 346 347 351 353 354 355 354 353 359 4 12 21 29 34 34 33 31 30 31 33 30 24 22 23 27 32 32
246 247 248 249 249 251 251 248 249 252 250 247 250 250 244 241 238 236 240 244 246 247 248 250 255 262 270 278 284 288 290 292 291 287 280 277 276 275 277 278 280 282 285 289 292 298 302 305 311 314 313 312 316 324 321 314 312 314 321 322 323 327 328 329 332 336 338 340 342 343 343 344 348 351 352 353 353 352 357 360 10 21 27 32 34 34 31 27 28 33 33 26 22 19 21 28 30
246 247 248 249 249 249 250 248 247 251 253 250 252 253 247 245 243 240 241 245 247 247 248 250 255 262 269 276 282 286 288 290 289 284 278 277 275 275 278 277 276 279 283 288 291 296 299 302 309 313 313 312 316 323 316 307 308 315 321 321 322 324 325 326 329 333 335 337 340 340 340 342 345 349 350 351 352 351 353 355 7 19 25 28 30 34 32 27 24 29 34 31 25 19 17 20 24
245 246 247 248 249 248 249 250 247 248 252 252 254 254 248 247 247 244 244 245 247 248 248 252 256 262 268 274 281 285 288 289 285 281 277 277 276 276 278 276 276 279 284 287 289 293 295 301 310 312 312 311 316 319 310 306 311 317 320 321 321 320 321 324 327 329 332 334 338 338 338 341 343 347 348 348 350 351 350 352 2 14 22 25 25 28 30 27 24 23 29 34 31 22 17 15 14
245 246 246 247 249 248 248 250 249 247 250 252 254 255 251 247 248 246 246 246 248 249 249 252 257 262 267 273 280 286 289 287 283 281 279 278 278 278 277 277 278 280 283 284 287 290 293 301 309 309 307 310 315 314 306 307 313 316 318 318 317 317 319 321 324 327 329 332 335 335 335 338 341 345 346 346 347 349 348 348 355 8 16 21 21 21 23 24 24 22 22 29 33 26 20 14 8
245 246 246 247 249 248 249 249 249 249 250 250 253 257 253 247 247 247 247 247 248 250 250 252 257 263 267 273 280 286 286 283 281 281 279 278 279 279 278 279 280 280 281 282 285 287 291 300 305 303 303 309 313 310 304 306 310 312 314 314 313 314 316 319 322 324 327 329 330 331 332 336 339 342 344 343 342 345 345 343 348 359 7 14 16 15 15 17 20 22 19 20 28 27 21 13 6
248 249 248 249 250 249 250 251 250 252 251 248 251 256 253 247 246 247 248 248 249 250 251 254 258 264 269 276 282 285 283 279 279 279 278 279 279 279 280 281 280 279 280 282 283 282 289 296 297 296 300 308 310 303 298 300 304 306 308 308 309 310 313 315 318 321 323 324 326 328 329 332 337 339 340 339 337 338 339 337 341 349 356 3 8 7 5 7 10 14 17 16 19 20 17 12 3
249 250 250 250 251 249 250 251 250 252 252 249 248 250 250 248 247 247 249 249 249 250 252 255 259 266 272 277 281 282 279 276 276 277 278 279 279 279 279 279 278 278 278 278 277 278 286 291 291 292 298 302 296 287 285 289 293 297 301 303 304 307 309 312 315 318 319 320 322 325 326 329 334 335 335 335 332 328 328 328 330 337 343 351 356 356 353 355 357 0 6 8 9 10 7 5 359
249 250 250 250 252 250 249 251 252 252 252 251 248 247 247 247 247 249 250 250 249 250 252 256 261 268 273 276 278 276 273 272 273 274 275 276 277 276 275 275 275 275 274 273 271 274 282 285 286 288 288 282 270 267 271 277 283 289 296 298 301 303 306 309 311 314 315 317 319 321 322 326 330 331 332 332 327 318 313 315 318 320 326 336 343 344 341 341 343 345 351 354 356 358 355 352 350
249 249 250 250 251 252 251 252 253 252 251 249 247 246 246 247 248 249 251 252 250 250 253 256 261 267 271 274 273 269 266 267 268 270 271 272 272 271 272 272 272 272 270 269 269 272 277 278 277 275 265 255 250 252 260 268 276 285 292 295 298 301 303 306 308 311 314 315 316 318 319 322 326 328 329 327 323 314 305 307 309 308 308 317 327 332 329 326 327 331 335 338 339 341 342 340 340
248 248 249 250 250 252 253 253 253 252 250 249 247 246 247 248 249 249 250 251 250 251 253 256 260 265 267 266 263 261 262 263 263 265 266 266 266 267 269 269 269 269 267 265 267 268 268 265 261 255 245 240 240 245 254 262 271 282 290 296 300 302 304 305 306 310 313 314 315 315 317 320 322 326 327 322 319 315 306 304 304 304 302 306 316 322 322 318 316 318 322 324 324 324 325 327 329
248 247 248 250 249 250 252 252 251 251 250 250 249 247 248 249 249 249 248 249 250 251 253 256 259 260 259 256 255 256 258 260 260 260 259 260 262 264 266 267 268 267 265 262 261 259 253 249 247 241 235 233 236 242 250 259 270 282 293 300 304 304 304 304 305 310 313 314 315 315 317 319 321 325 326 319 316 316 309 304 305 304 304 307 313 319 320 317 312 311 313 314 314 313 314 316 318
248 248 248 249 249 249 250 250 250 250 250 250 249 248 249 250 248 248 248 249 250 251 252 253 253 252 250 250 250 253 256 258 258 256 255 258 261 263 264 265 267 267 265 258 250 242 237 238 237 233 230 231 234 241 251 262 274 286 297 303 305 306 304 304 305 310 313 316 318 319 321 322 322 325 325 320 315 315 313 309 310 309 310 312 319 325 327 324 318 312 308 308 309 308 308 310 312
247 248 248 248 248 249 250 250 249 249 250 248 248 249 248 249 247 247 247 247 246 245 246 244 242 241 242 246 250 251 251 252 253 255 256 258 262 263 264 266 270 269 261 247 235 230 232 235 233 229 227 229 235 242 253 264 276 287 294 297 301 305 305 304 305 310 313 317 321 324 328 326 324 325 324 323 318 315 313 314 315 316 318 321 327 333 335 332 328 322 312 306 305 306 305 306 308
247 247 247 248 248 248 248 249 248 248 249 247 247 247 246 247 245 244 243 240 237 236 237 236 235 237 239 243 244 244 244 247 252 256 258 259 262 265 267 271 271 265 251 236 229 230 234 233 229 227 227 229 234 241 250 262 273 280 284 290 297 302 304 304 305 309 313 318 322 327 331 329 325 324 323 324 323 314 306 308 314 319 321 323 329 335 337 334 333 332 324 312 305 304 304 304 304
246 247 247 248 247 247 246 247 246 246 248 246 245 244 242 243 243 241 238 233 231 231 232 233 234 237 240 240 241 244 245 248 252 256 259 262 264 266 268 268 264 254 241 232 230 233 234 229 226 225 227 229 233 239 248 259 268 274 281 289 296 301 303 303 304 308 313 318 320 322 327 326 323 321 318 320 322 314 296 290 305 319 319 318 325 332 334 332 332 333 332 326 315 308 305 304 303
246 246 247 248 247 246 244 244 244 244 246 245 244 242 239 240 240 239 236 231 229 228 229 232 234 234 238 240 242 245 246 246 249 254 259 263 265 266 264 260 253 245 236 230 230 232 230 227 226 226 227 230 233 239 247 258 267 275 282 289 295 300 302 302 304 308 313 315 316 317 320 319 317 315 310 311 317 315 297 279 286 309 314 311 317 326 329 328 329 330 332 332 328 321 313 308 304
245 246 247 247 246 244 242 241 241 243 245 245 243 241 238 237 238 238 235 232 230 229 229 232 234 235 239 242 243 243 244 246 249 253 258 261 263 263 259 252 244 237 231 228 227 228 228 228 228 227 228 231 234 238 246 256 267 274 281 288 294 298 299 301 306 310 313 315 314 315 315 311 311 307 302 305 309 315 308 287 280 295 306 306 311 320 325 325 326 327 330 332 331 329 324 316 309
244 245 246 246 245 243 240 239 240 242 244 243 242 240 237 236 236 236 236 233 233 233 233 234 237 238 240 243 244 244 245 246 248 251 255 257 259 258 254 248 241 234 230 227 226 228 231 232 230 229 230 231 234 237 244 253 263 271 278 285 290 291 296 305 313 317 318 318 317 315 313 310 305 300 298 302 306 312 317 304 288 291 301 305 309 317 322 323 323 325 327 329 329 328 327 323 317
243 244 244 245 244 242 238 238 240 242 243 242 241 239 237 235 234 235 235 234 234 234 234 235 238 241 242 243 244 243 243 245 247 249 253 255 256 256 253 247 240 235 232 230 229 233 237 237 234 232 232 232 235 237 243 251 258 266 273 278 281 283 294 310 318 323 323 321 320 317 315 311 304 299 300 304 307 310 314 310 301 298 303 307 311 316 319 321 322 323 325 326 326 325 325 324 322
243 243 243 244 243 239 237 239 241 242 242 241 240 237 236 234 233 234 235 236 236 236 235 232 231 235 238 239 241 241 241 243 246 248 251 254 256 255 252 245 239 234 232 231 232 237 240 239 236 234 233 233 236 238 242 248 254 260 266 268 268 274 291 308 319 325 324 322 320 318 317 313 308 304 305 308 308 309 309 306 303 301 304 309 312 314 315 317 320 322 324 324 323 323 323 323 323
242 242 241 241 240 238 237 239 241 242 241 240 239 236 234 233 231 232 233 234 235 234 233 232 229 230 232 232 234 236 239 242 245 248 251 254 255 254 249 243 237 231 229 230 233 236 238 237 235 234 233 234 236 238 241 245 250 255 258 257 255 264 285 303 316 323 323 323 320 318 316 313 309 304 303 304 305 306 306 304 302 301 304 308 310 311 312 315 319 320 320 320 320 321 322 323 323
239 239 239 238 237 238 238 238 240 242 240 239 238 235 234 231 229 229 229 230 232 232 231 232 233 234 235 236 234 235 237 240 243 247 250 253 254 251 246 242 235 229 228 229 231 232 233 234 234 234 235 236 237 238 240 242 245 249 252 250 249 260 278 297 312 318 321 322 319 316 314 310 305 301 300 302 304 305 305 305 303 303 304 306 307 308 311 315 319 320 319 317 317 319 321 322 322
235 235 236 236 235 236 236 237 239 240 239 239 237 235 232 230 228 226 226 228 231 232 232 233 235 237 238 239 239 238 238 241 245 248 250 253 253 249 243 239 233 228 227 228 230 230 231 232 233 234 235 236 236 236 236 238 241 244 247 246 247 257 272 289 304 313 319 322 319 315 310 306 300 298 300 303 304 304 304 304 304 304 306 307 308 310 314 318 321 323 320 317 316 316 318 318 318
233 233 234 234 233 234 235 235 236 237 238 238 236 234 231 229 228 226 227 228 230 232 234 236 239 240 240 240 239 240 242 243 246 249 251 252 251 247 241 235 230 226 226 227 228 228 230 231 231 233 235 235 234 232 233 235 237 240 243 243 246 255 266 281 296 308 319 324 321 315 308 303 300 301 303 305 306 305 304 304 305 307 308 309 312 315 316 318 322 324 321 317 315 314 314 313 313
230 230 231 231 231 233 234 233 234 235 236 236 234 232 230 229 228 228 229 230 232 234 236 239 241 242 241 239 238 239 241 242 246 250 251 250 246 240 235 231 226 223 223 225 226 226 228 230 231 232 233 233 232 231 233 234 234 238 240 241 247 254 263 276 289 305 319 324 322 315 308 304 304 305 306 306 305 304 304 306 308 309 310 311 313 314 313 314 317 320 319 317 315 313 311 309 308
227 227 228 228 229 231 232 231 232 235 235 233 232 230 229 227 227 228 229 230 232 235 237 239 240 240 239 237 237 238 240 243 247 250 250 246 239 233 229 227 224 221 222 224 225 225 227 229 232 232 232 231 232 232 232 232 233 237 239 242 248 254 262 271 282 299 315 321 320 312 304 302 303 304 304 305 303 303 305 308 310 311 311 311 312 312 310 311 313 315 316 316 316 315 312 308 306
224 225 225 226 228 230 232 230 231 232 232 232 230 228 227 226 228 228 229 229 231 233 235 237 237 236 235 235 237 240 245 252 256 263 264 252 236 225 223 224 224 224 224 225 224 225 226 229 231 232 232 231 232 233 233 233 234 238 239 241 248 254 260 266 274 290 305 312 314 308 302 300 301 302 303 303 302 303 306 309 311 312 311 311 311 311 310 311 313 314 314 314 314 314 312 309 307
221 223 223 225 227 229 230 229 230 231 231 231 229 227 225 225 227 228 228 227 227 230 231 233 234 233 233 236 240 246 251 257 262 273 272 250 230 220 220 222 224 224 224 224 222 224 226 228 229 231 232 231 231 233 233 233 235 238 239 243 249 253 257 261 268 280 293 302 307 304 301 300 299 298 298 297 297 300 306 310 312 312 311 310 310 310 311 312 314 314 314 313 312 312 311 309 307
219 220 221 223 225 227 229 229 229 231 231 230 228 226 226 226 226 228 229 228 226 226 227 228 228 228 232 236 239 244 248 251 252 254 239 219 214 219 220 219 222 224 222 221 222 224 228 228 229 231 232 231 231 232 232 233 235 237 240 245 251 255 257 261 266 274 284 293 299 299 297 298 297 294 291 289 290 294 299 303 305 306 308 309 310 309 310 311 312 311 311 311 310 310 310 308 306
218 218 219 221 224 225 226 228 229 230 230 230 226 221 227 226 223 228 232 233 231 225 225 226 223 222 225 231 236 237 241 243 241 238 218 206 208 215 216 216 220 223 220 221 222 224 226 226 227 229 230 229 229 231 231 232 235 238 242 247 253 256 259 261 264 269 278 286 292 294 293 294 293 290 288 286 286 288 290 292 294 296 299 303 306 307 307 308 308 308 307 307 307 308 308 307 305
216 216 218 220 222 223 225 226 226 228 228 229 223 217 228 228 220 226 231 234 234 226 229 232 227 222 220 222 227 230 237 239 234 227 213 207 207 213 225 225 219 218 217 217 219 221 223 223 224 226 228 228 228 231 233 235 238 240 243 248 253 256 259 260 261 266 273 280 286 289 289 290 290 290 290 290 289 288 287 287 287 289 291 295 300 303 304 305 305 305 305 305 305 306 305 304 303
215 215 218 219 220 222 224 224 224 227 227 227 220 213 227 229 220 223 229 233 233 227 231 233 229 225 223 223 222 221 227 231 228 219 209 208 211 228 250 240 216 211 210 211 215 217 219 220 222 224 226 228 229 232 234 237 240 241 244 248 253 257 259 260 261 266 271 276 281 285 289 293 295 296 295 295 294 292 290 287 285 286 287 291 296 299 301 302 303 304 305 305 305 306 305 304 303
214 214 216 217 218 221 224 224 224 227 227 225 218 213 223 227 222 224 227 230 231 229 231 232 228 220 218 223 221 216 218 223 224 217 208 209 219 237 251 232 210 206 203 204 209 209 214 217 219 222 224 228 230 232 235 238 240 242 245 249 253 257 260 262 263 268 272 276 279 284 290 294 297 297 297 298 299 298 295 292 290 288 288 291 295 298 300 302 303 304 304 305 306 306 306 306 305
214 214 216 216 218 220 223 224 223 225 225 223 218 219 224 226 225 226 226 228 230 232 233 234 231 224 221 222 219 219 219 219 219 215 210 211 223 237 240 223 211 207 203 204 206 206 210 214 216 220 222 226 230 233 235 238 242 243 245 249 254 258 262 265 266 270 274 277 278 281 286 290 293 296 298 300 302 302 300 298 297 295 294 295 296 298 299 301 302 303 304 305 306 306 306 306 305
212 213 215 217 219 220 222 223 223 224 225 223 219 221 226 225 226 226 226 228 230 233 234 232 230 227 228 223 218 223 224 217 215 213 212 216 226 235 233 223 215 211 209 209 208 207 210 214 216 219 221 225 229 232 235 237 240 242 245 251 257 261 265 267 269 273 276 277 278 280 283 286 290 293 296 299 302 304 303 303 301 300 300 300 300 299 300 301 302 303 304 306 306 306 306 306 306
211 211 212 215 217 220 225 226 225 225 225 225 221 221 225 224 224 226 226 227 230 234 233 230 228 224 225 226 226 231 231 225 219 214 215 220 226 225 221 220 220 219 219 216 214 213 212 213 216 219 221 225 228 231 233 236 239 242 247 253 259 264 267 269 272 274 275 276 278 280 282 285 288 290 293 297 300 303 304 305 304 303 302 302 302 302 302 303 304 305 307 308 308 308 308 308 308
210 211 211 212 213 219 224 225 225 225 226 227 222 223 226 223 222 225 226 227 229 233 232 230 229 226 224 226 230 234 235 235 227 217 214 215 216 215 214 218 222 225 226 226 223 221 220 217 218 221 223 226 229 231 232 236 240 244 249 255 260 265 267 269 271 273 275 276 277 279 282 285 287 288 290 294 298 301 303 305 305 304 303 303 304 304 305 305 306 307 308 309 309 308 307 308 308
210 210 211 210 212 218 221 222 223 224 226 227 223 223 226 223 223 224 226 227 227 231 234 234 232 230 228 228 233 242 243 236 222 211 206 203 206 213 216 219 224 227 229 227 223 223 226 225 225 228 228 229 232 233 234 238 241 245 251 255 259 263 265 266 269 272 275 277 279 281 284 287 289 289 290 292 295 297 299 300 302 302 303 304 304 304 305 305 306 307 307 308 307 306 306 306 307
208 209 210 210 213 218 220 221 223 222 224 225 223 225 226 224 222 223 225 227 227 231 237 238 235 235 235 233 238 249 247 230 213 206 206 201 202 209 214 222 227 227 225 223 222 225 228 230 232 233 232 232 233 235 237 239 242 245 251 256 258 261 264 266 269 271 274 277 281 283 286 288 289 289 290 291 292 294 296 297 297 299 301 301 301 301 302 303 303 304 305 306 306 305 305 305 305
207 208 208 210 213 217 219 221 221 221 223 224 222 225 227 225 222 222 225 227 226 230 235 236 234 237 239 237 239 246 249 237 219 212 211 203 201 205 208 216 221 222 223 222 223 225 227 230 233 233 233 233 234 235 237 240 244 248 253 257 258 260 263 265 268 270 274 279 282 285 287 288 289 289 289 290 292 294 296 296 296 297 298 298 298 298 299 299 301 302 303 305 305 305 305 305 304
207 207 207 209 211 214 218 221 221 221 223 223 221 223 227 226 222 221 223 225 226 227 230 232 233 236 240 242 244 245 253 259 238 218 208 199 197 201 204 212 217 220 223 223 223 224 225 228 230 232 232 233 234 236 239 242 247 252 255 257 258 260 262 265 269 272 277 281 284 286 287 288 290 290 290 291 293 294 295 295 294 295 296 296 296 297 297 297 298 299 301 303 304 304 304 304 303
207 207 208 210 211 213 218 219 219 221 223 222 220 221 227 228 225 222 221 222 224 224 227 230 233 235 238 242 247 246 257 265 233 206 198 196 197 203 213 219 219 219 221 222 223 224 226 228 229 231 232 234 237 240 243 246 250 253 256 258 259 261 263 265 270 274 278 281 283 286 287 289 291 293 293 293 295 296 296 295 294 293 292 292 292 293 293 294 294 295 297 299 300 301 301 301 301
207 206 207 209 210 213 217 217 216 218 221 222 220 219 223 228 227 225 222 220 220 222 225 229 231 234 235 239 244 246 256 251 210 199 204 212 214 218 223 220 216 217 219 221 222 224 227 229 230 232 234 236 239 242 246 248 251 254 256 259 261 263 265 267 270 274 276 279 282 285 288 290 292 294 295 295 296 296 296 295 294 292 291 290 290 290 290 291 292 292 293 295 296 297 298 298 298
207 204 205 207 208 212 215 215 218 220 220 221 223 220 221 227 228 227 224 220 218 220 224 228 230 232 233 238 242 242 250 237 209 209 221 224 223 222 218 213 211 214 217 219 221 223 226 228 231 233 235 236 239 241 245 247 249 252 255 259 262 264 267 269 273 276 279 281 284 287 289 291 292 294 295 296 295 295 295 294 294 293 292 292 291 291 291 291 291 291 291 292 293 294 295 295 296
207 203 204 207 208 211 213 215 219 222 219 220 224 221 221 227 228 228 227 223 221 222 224 227 228 229 231 236 238 237 242 233 217 217 220 218 216 211 208 208 209 211 213 216 219 221 223 226 229 233 235 237 239 242 244 247 249 250 253 257 261 265 268 272 276 279 282 284 286 288 290 291 292 293 294 294 294 294 294 295 295 295 295 294 293 292 292 292 291 291 291 291 291 291 292 293 294
205 202 204 206 208 211 212 215 220 223 219 220 224 220 218 224 227 228 229 228 225 223 224 226 227 229 231 233 234 233 234 230 222 218 216 216 211 201 202 207 207 208 209 209 212 217 220 223 227 232 237 239 242 245 247 249 250 251 253 256 261 266 269 273 277 280 282 285 287 288 289 291 291 292 292 293 293 294 294 295 296 296 296 296 296 295 294 294 293 293 292 292 292 291 291 291 292
202 202 204 204 207 210 212 215 220 223 221 222 225 221 218 223 226 225 227 228 225 222 222 224 226 227 229 231 231 231 233 234 230 223 220 220 207 196 201 207 205 204 204 201 205 211 217 222 227 232 237 240 243 245 248 250 252 253 255 257 262 267 270 274 278 281 284 286 287 289 290 291 292 292 293 293 294 294 294 294 295 296 295 295 295 295 295 296 296 295 294 294 293 292 291 291 291
201 202 204 204 206 208 211 214 218 220 221 223 223 221 220 225 227 223 223 225 224 223 221 219 220 220 221 223 227 232 236 239 241 235 231 227 210 197 203 210 208 205 202 203 209 214 220 226 231 235 239 243 245 247 249 251 253 254 256 260 264 269 273 277 280 283 285 287 288 290 291 292 293 293 294 294 294 295 295 295 295 295 295 294 294 294 294 295 295 295 295 295 295 294 293 292 291
202 204 204 204 206 209 210 213 216 219 222 223 221 221 222 226 228 224 223 225 225 225 220 217 218 218 218 218 222 232 234 237 246 240 234 229 215 209 214 214 209 205 204 210 218 224 230 233 237 243 246 248 250 252 254 254 256 257 260 263 266 270 274 278 282 284 286 288 289 291 292 294 295 295 295 296 297 298 299 298 298 298 297 296 295 294 293 293 293 294 294 295 295 295 294 293 292
203 204 206 206 208 211 213 214 216 219 224 225 222 222 225 228 229 227 227 228 228 227 221 219 219 218 220 219 220 226 228 232 239 232 228 224 213 211 212 207 208 210 209 213 220 229 237 241 244 247 249 252 254 255 257 258 260 263 265 267 269 272 276 280 284 285 287 288 290 292 293 295 296 297 298 300 301 302 302 302 302 301 301 299 298 296 294 293 292 292 292 292 293 293 293 293 292
204 206 208 208 209 213 214 216 217 221 227 228 224 225 227 230 231 230 230 231 230 230 225 222 220 217 220 223 226 230 230 232 232 225 226 226 219 213 206 205 215 220 212 211 219 230 241 248 252 254 255 257 257 257 258 260 263 266 269 271 273 275 279 283 286 287 288 289 290 292 294 296 298 299 301 302 302 303 304 304 305 305 304 302 300 298 296 294 293 292 291 291 291 290 290 290 290
203 206 209 209 210 214 215 216 218 222 228 230 227 227 228 230 232 232 231 231 231 231 229 224 219 216 218 223 229 233 234 235 234 229 227 224 219 213 208 211 218 214 210 215 223 232 242 252 257 261 261 261 261 261 262 264 266 269 271 273 275 277 281 285 286 287 287 288 289 291 293 294 296 298 300 301 301 302 303 304 305 306 305 303 302 300 298 296 295 293 292 291 290 289 289 288 288
204 205 209 210 212 215 215 217 220 222 227 230 229 229 230 230 232 233 233 233 233 233 232 228 222 219 220 223 227 231 232 232 234 234 229 224 220 215 214 224 223 213 216 223 228 236 246 253 259 263 264 264 262 262 263 265 267 270 272 275 277 281 284 285 285 285 284 285 286 288 290 292 294 296 297 298 299 300 302 303 305 305 305 303 302 301 299 297 296 294 293 292 291 290 289 289 288
206 205 209 212 214 217 217 218 222 222 225 230 231 231 232 231 232 234 235 236 237 236 235 232 227 223 222 224 227 231 232 233 235 237 234 233 228 219 220 230 226 219 224 228 231 240 248 256 264 267 267 266 266 267 268 269 271 274 277 280 282 284 285 285 285 283 282 282 283 285 288 290 291 293 294 296 297 299 301 302 304 305 304 303 302 302 300 298 297 295 294 292 291 290 289 289 288
205 206 209 211 213 217 219 220 224 225 226 231 232 233 234 234 233 235 238 239 240 239 237 234 230 226 225 225 228 232 235 238 239 238 238 241 236 225 223 225 222 221 227 230 235 242 252 264 271 273 271 270 272 274 275 277 278 280 282 283 284 284 284 285 285 283 280 279 281 283 285 287 289 291 293 294 296 298 300 301 303 303 303 302 302 301 300 298 297 296 294 293 292 291 290 289 288
205 207 210 210 212 215 216 219 222 225 227 232 234 235 236 236 235 235 238 240 240 239 237 234 230 226 226 226 226 229 233 236 239 238 240 244 241 235 230 226 225 227 230 238 246 251 259 269 274 276 276 274 275 277 278 280 281 283 284 284 285 284 284 285 286 285 282 280 280 281 283 285 287 289 291 293 295 297 298 300 301 302 301 301 301 300 299 298 297 296 295 295 294 293 292 290 289
209 210 211 212 214 215 216 218 221 222 225 229 233 235 236 237 235 233 235 237 238 238 236 234 232 228 227 228 227 227 228 232 236 238 241 244 243 241 239 239 242 239 235 246 255 257 263 269 273 276 275 274 276 276 278 281 281 283 286 287 287 285 284 285 287 288 286 283 281 281 282 283 285 287 289 291 293 294 296 298 299 300 300 301 301 300 299 298 298 298 297 296 295 294 293 292 290